[[{"header":{"parameterUnit":"m.s-1","parameterCategory":2,"la1":30.2991,"la2":30.254,"lo1":-89.0895,"lo2":-89.0444,"dy":0.0017,"dx":0.0017,"nx":28,"ny":28,"refTime":"2025-01-25T03:00:00:Z","depth":"0","parameterNumber":2,"parameterNumberName":"U-component_of_CURRENTS"},"data":[0,0,0,0,0,0,0,0,0,0,0,0,0,0,0,0,0,0,0,0,0,0,0,0,0,0,0,0,0,0,0,0,0,0,0,0,0,0,0,0,0,0,0,0,0,0,0,0,0,0,0,0,0,0,0,0,0,0,-0.3184,-0.3185,0,-0.3224,-0.3224,-0.3223,-0.3176,-0.3175,-0.3174,-0.3173,-0.3152,-0.3152,-0.3152,0,0,0,0,0,0,0,0,0,0,0,0,0,-0.3007,-0.301,-0.3184,-0.3186,-0.3187,-0.3224,-0.3224,-0.3223,-0.3176,-0.3175,-0.3174,-0.3173,-0.3151,-0.3152,-0.3152,0,0,0,0,0,0,0,0,0,0,0,0,0,-0.306,-0.3011,-0.3184,-0.3175,-0.3175,-0.3224,-0.3224,-0.3223,-0.3176,-0.3175,-0.3174,-0.3172,-0.3151,-0.3152,-0.3152,-0.318,0,0,-0.3153,-0.3153,0,0,0,0,0,0,0,0,-0.3057,-0.3065,-0.3175,-0.3176,-0.3176,-0.3202,-0.3154,-0.3209,-0.3177,-0.3165,-0.3173,-0.3172,-0.317,-0.3169,-0.3166,-0.3179,-0.3178,-0.3153,-0.3153,-0.3153,-0.3154,0,0,0,0,0,0,0,-0.3054,-0.3063,-0.319,-0.3177,-0.3178,-0.3149,-0.3155,-0.3163,-0.3166,-0.3166,-0.3165,-0.3186,-0.3168,-0.3166,-0.3165,-0.3178,-0.3153,-0.3153,-0.3154,-0.3154,-0.3204,-0.3206,0,0,0,0,0,0,-0.3074,-0.3061,-0.3189,-0.3192,-0.3123,-0.3155,-0.316,-0.3187,-0.3167,-0.3166,-0.3187,-0.3184,-0.3166,-0.3165,-0.3164,-0.317,-0.3153,-0.3154,-0.3154,-0.3203,-0.3205,-0.3206,0,0,0,0,0,0,-0.307,-0.3085,-0.3187,-0.3134,-0.3146,-0.3161,-0.319,-0.3189,-0.3184,-0.3185,-0.3181,-0.3185,-0.3165,-0.3164,-0.3181,-0.3169,-0.3154,-0.3154,-0.3202,-0.3204,-0.3205,-0.3198,0,0,0,0,0,0,-0.3065,-0.3083,-0.3093,-0.3136,-0.3151,-0.3221,-0.3193,-0.3191,-0.3204,-0.3199,-0.3182,-0.3179,-0.3164,-0.318,-0.3181,-0.317,-0.3155,-0.3201,-0.3203,-0.3205,-0.3197,-0.3199,-0.3201,0,0,0,0,0,-0.3058,-0.309,-0.3093,-0.3109,-0.3169,-0.3223,-0.3227,-0.3224,-0.3205,-0.3211,-0.3204,-0.3179,-0.3194,-0.3182,-0.3183,-0.3171,-0.32,-0.3202,-0.3205,-0.3196,-0.3199,-0.3201,0,0,0,0,0,0,-0.3016,-0.3091,-0.3094,-0.3146,-0.3183,-0.3219,-0.3226,-0.323,-0.3228,-0.3218,-0.3201,-0.3199,-0.3208,-0.3205,-0.3193,-0.3196,-0.319,-0.3193,-0.3183,-0.3186,-0.3188,-0.3142,-0.3155,0,0,0,0,0,-0.3016,-0.3052,-0.3118,-0.3151,-0.3175,-0.3198,-0.3214,-0.3223,-0.324,-0.3236,-0.3231,-0.3224,-0.3222,-0.3216,-0.3222,-0.3229,-0.3189,-0.3222,-0.3225,-0.3226,-0.3192,-0.3129,-0.312,-0.3214,-0.3214,-0.3214,0,0,-0.3006,-0.3052,-0.307,-0.3143,-0.3163,-0.319,-0.3201,-0.3238,-0.3241,-0.3237,-0.323,-0.3239,-0.3231,-0.3234,-0.3236,-0.3225,-0.3189,-0.3229,-0.323,-0.3195,-0.313,-0.312,-0.3111,-0.3216,-0.3216,-0.3216,0,0,-0.2987,-0.3049,-0.3057,-0.31,-0.3156,-0.3187,-0.3202,-0.3249,-0.3247,-0.3272,-0.3257,-0.3257,-0.3272,-0.3246,-0.3237,-0.326,-0.3211,-0.3272,-0.323,-0.317,-0.316,-0.315,-0.3118,-0.3106,-0.3262,-0.3262,-0.3262,0,-0.2951,-0.2986,-0.3066,-0.3087,-0.3106,-0.3184,-0.3184,-0.3219,-0.3259,-0.3244,-0.3272,-0.3255,-0.3266,-0.322,-0.3233,-0.3257,-0.3223,-0.3216,-0.3167,-0.3157,-0.3147,-0.3116,-0.3102,-0.3262,-0.3262,-0.3262,-0.3262,0,-0.293,-0.2962,-0.2979,-0.3024,-0.3066,-0.3092,-0.3165,-0.319,-0.3215,-0.3229,-0.3217,-0.3239,-0.321,-0.3231,-0.324,-0.3177,-0.3178,-0.3182,-0.3147,-0.3136,-0.3106,-0.3092,-0.3262,-0.3262,-0.3262,-0.3262,0,0,-0.2808,-0.2928,-0.2924,-0.2942,-0.303,-0.3067,-0.3091,-0.3114,-0.311,-0.3156,-0.3113,-0.3136,-0.3142,-0.3133,-0.3144,-0.3103,-0.3041,-0.3111,-0.3108,-0.3056,-0.2914,-0.287,-0.285,-0.3026,-0.3023,-0.3021,-0.2931,0,-0.2732,-0.2766,-0.2835,-0.2855,-0.2883,-0.2964,-0.2983,-0.3026,-0.3064,-0.3066,-0.3074,-0.3068,-0.3108,-0.31,-0.3062,-0.3056,-0.2998,-0.3065,-0.2952,-0.2948,-0.2889,-0.2829,-0.2712,-0.2616,-0.2916,-0.2914,-0.2912,0,-0.2654,-0.2696,-0.2702,-0.2785,-0.2797,-0.2821,-0.2855,-0.2887,-0.2922,-0.2944,-0.2931,-0.296,-0.2927,-0.2968,-0.2896,-0.2935,-0.2905,-0.2898,-0.2894,-0.283,-0.2874,-0.2672,-0.2578,-0.256,-0.289,-0.2892,-0.2893,0,-0.2534,-0.2594,-0.2596,-0.2626,-0.2734,-0.2727,-0.2771,-0.2826,-0.2848,-0.2859,-0.2872,-0.2841,-0.2842,-0.279,-0.2814,-0.2835,-0.2734,-0.2761,-0.268,-0.2679,-0.2541,-0.2532,-0.2383,-0.2652,-0.2652,-0.2652,-0.2653,0,-0.244,-0.2442,-0.2548,-0.2562,-0.2559,-0.2654,-0.265,-0.2694,-0.2739,-0.2746,-0.2798,-0.2791,-0.2794,-0.277,-0.2759,-0.2681,-0.2682,-0.2634,-0.2627,-0.2544,-0.2536,-0.2485,-0.2525,-0.2649,-0.265,-0.265,-0.2651,0,-0.2329,-0.2394,-0.2416,-0.2499,-0.2518,-0.2524,-0.2605,-0.2609,-0.2673,-0.2678,-0.268,-0.2735,-0.2699,-0.2703,-0.2637,-0.2613,-0.2496,-0.2513,-0.2435,-0.2419,-0.231,-0.2356,-0.2196,-0.2136,-0.2376,-0.2374,-0.2372,0,-0.2281,-0.2282,-0.236,-0.237,-0.2404,-0.2438,-0.2456,-0.255,-0.2567,-0.2641,-0.2625,-0.2625,-0.2597,-0.2518,-0.2457,-0.2377,-0.2398,-0.2235,-0.2236,-0.2244,-0.229,-0.2335,-0.23,-0.2073,-0.2069,-0.2065,-0.2063,0,-0.218,-0.2207,-0.2233,-0.226,-0.2279,-0.2308,-0.2347,-0.2361,-0.2457,-0.2473,-0.2482,-0.2468,-0.2416,-0.2293,-0.2223,-0.2168,-0.2174,-0.2164,-0.2161,-0.2008,-0.2051,-0.2011,-0.2238,-0.2033,-0.2036,-0.2038,-0.204,-0.2041,-0.2088,-0.2083,-0.2117,-0.2125,-0.2148,-0.2151,-0.2129,-0.2184,-0.2194,-0.2192,-0.2278,-0.2224,-0.2173,-0.2048,-0.1994,-0.1865,-0.1947,-0.1808,-0.1856,-0.1898,-0.1834,-0.2013,-0.1815,-0.1817,-0.1818,-0.1819,-0.182,0,-0.1967,-0.1974,-0.198,-0.1987,-0.1951,-0.2012,-0.2023,-0.1977,-0.1934,-0.1979,-0.1962,-0.1929,-0.1805,-0.1779,-0.167,-0.159,-0.1559,-0.1563,-0.1583,-0.1555,-0.1673,-0.1654,-0.1423,-0.1423,-0.1423,-0.1423,-0.1423,-0.1423,-0.1903,-0.1864,-0.1871,-0.1778,-0.1773,-0.1681,-0.1653,-0.1613,-0.1613,-0.1566,-0.1573,-0.1624,-0.1624,-0.1696,-0.1561,-0.1474,-0.1453,-0.1401,-0.1455,-0.1546,-0.1573,-0.1599,-0.1587,-0.1346,-0.1346,-0.1256,-0.1256,-0.1255]},{"header":{"parameterUnit":"m.s-1","parameterCategory":2,"la1":30.2991,"la2":30.254,"lo1":-89.0895,"lo2":-89.0444,"dy":0.0017,"dx":0.0017,"nx":28,"ny":28,"refTime":"2025-01-25T03:00:00:Z","depth":"0","parameterNumber":3,"parameterNumberName":"V-component_of_CURRENTS"},"data":[0,0,0,0,0,0,0,0,0,0,0,0,0,0,0,0,0,0,0,0,0,0,0,0,0,0,0,0,0,0,0,0,0,0,0,0,0,0,0,0,0,0,0,0,0,0,0,0,0,0,0,0,0,0,0,0,0,0,0.0058,0.006,0,0.0199,0.02,0.0202,0.0308,0.0309,0.031,0.0311,0.0512,0.0516,0.052,0,0,0,0,0,0,0,0,0,0,0,0,0,-0.0094,-0.0092,0.0058,0.006,0.0062,0.0198,0.02,0.0202,0.0308,0.0309,0.031,0.0312,0.051,0.0515,0.052,0,0,0,0,0,0,0,0,0,0,0,0,0,0.0,-0.0091,0.0058,0.0132,0.014,0.0198,0.02,0.0202,0.0307,0.0309,0.0311,0.0312,0.0508,0.0515,0.0521,0.0528,0,0,0.0541,0.0544,0,0,0,0,0,0,0,0,-0.0005,0.0006,0.0119,0.0127,0.0136,0.0239,0.022,0.0315,0.0307,0.0242,0.0311,0.0313,0.0426,0.0439,0.0459,0.0537,0.0546,0.0541,0.0545,0.0548,0.055,0,0,0,0,0,0,0,-0.0012,0.0001,0.0112,0.0121,0.0132,0.0167,0.0182,0.0238,0.0323,0.0248,0.0257,0.0274,0.0431,0.0452,0.0464,0.0549,0.0541,0.0547,0.0551,0.0553,0.0651,0.065,0,0,0,0,0,0,-0.0029,-0.0006,0.0108,0.0117,0.007,0.0168,0.0185,0.0203,0.0321,0.0341,0.0272,0.0278,0.044,0.0457,0.0472,0.0496,0.0548,0.0554,0.0558,0.0652,0.0651,0.065,0,0,0,0,0,0,-0.0033,-0.002,0.0102,0.006,0.0078,0.0169,0.0189,0.0205,0.0229,0.0339,0.036,0.028,0.0442,0.0463,0.0515,0.0505,0.0557,0.0563,0.0654,0.0652,0.065,0.0539,0,0,0,0,0,0,-0.0038,-0.0023,-0.0026,0.0058,0.008,0.0124,0.0188,0.0206,0.0238,0.0247,0.0353,0.0373,0.0445,0.0504,0.0521,0.0515,0.0568,0.0656,0.0653,0.0651,0.0545,0.0534,0.0525,0,0,0,0,0,-0.0044,-0.0055,-0.0027,-0.0013,0.0076,0.0123,0.0136,0.0206,0.0236,0.0235,0.0307,0.037,0.0501,0.0508,0.0528,0.0524,0.0657,0.0654,0.0651,0.0549,0.0536,0.0525,0,0,0,0,0,0,-0.0116,-0.0042,-0.001,0.0004,0.0054,0.0141,0.0145,0.0192,0.0246,0.0255,0.0358,0.0382,0.0424,0.048,0.0485,0.0542,0.0587,0.0588,0.0503,0.0492,0.0482,0.0471,0.0573,0,0,0,0,0,-0.0137,-0.0129,-0.0049,-0.0042,-0.0022,0.0056,0.008,0.0127,0.0192,0.0217,0.0291,0.0364,0.0425,0.0462,0.0522,0.0551,0.0592,0.0559,0.0548,0.054,0.0542,0.0568,0.0561,0.064,0.064,0.064,0,0,-0.0161,-0.0122,-0.0115,-0.0058,-0.0015,0.0001,0.0074,0.0102,0.0121,0.023,0.0266,0.0332,0.0424,0.0461,0.0485,0.051,0.0536,0.0536,0.0528,0.0536,0.0565,0.0557,0.055,0.0638,0.0639,0.0639,0,0,-0.0218,-0.0175,-0.0192,-0.0159,-0.0105,-0.0052,-0.0051,0.0026,0.0065,0.0104,0.0187,0.0245,0.033,0.04,0.0446,0.0414,0.048,0.0424,0.0373,0.0397,0.0391,0.0386,0.0417,0.0416,0.0422,0.0421,0.0421,0,-0.0257,-0.0251,-0.0192,-0.0197,-0.0175,-0.0084,-0.0092,-0.0043,0.0041,0.0065,0.0099,0.0222,0.0306,0.0364,0.0363,0.0395,0.0413,0.0413,0.0384,0.038,0.0377,0.041,0.041,0.0416,0.0416,0.0417,0.0417,0,-0.0318,-0.0313,-0.0321,-0.0294,-0.0268,-0.0259,-0.0182,-0.0156,-0.01,-0.0042,0.0016,0.012,0.0197,0.0228,0.0297,0.0316,0.0338,0.0365,0.0413,0.0362,0.04,0.0402,0.0407,0.041,0.0411,0.0413,0,0,-0.0399,-0.0372,-0.0374,-0.0373,-0.0316,-0.0298,-0.0277,-0.0224,-0.0205,-0.0131,-0.0105,0.0009,0.0066,0.0121,0.0205,0.024,0.0249,0.0287,0.0291,0.0315,0.0294,0.0358,0.0367,0.0258,0.0258,0.0258,0.0326,0,-0.0462,-0.0497,-0.046,-0.0479,-0.0482,-0.0406,-0.039,-0.0332,-0.0268,-0.0222,-0.0116,-0.0055,0.0025,0.0065,0.0107,0.0223,0.025,0.0228,0.0344,0.0348,0.0408,0.0371,0.0409,0.0477,0.0329,0.0329,0.0329,0,-0.0525,-0.0538,-0.0576,-0.0557,-0.0553,-0.0549,-0.0502,-0.0475,-0.0388,-0.034,-0.0272,-0.0181,-0.0089,-0.0026,0.0113,0.0087,0.0178,0.0257,0.0261,0.0365,0.0415,0.0506,0.0487,0.064,0.0334,0.0333,0.0333,0,-0.0596,-0.061,-0.0643,-0.0637,-0.0608,-0.061,-0.0586,-0.0516,-0.0492,-0.041,-0.0382,-0.0276,-0.0203,-0.0099,0.0093,0.0088,0.024,0.0255,0.039,0.0396,0.0478,0.0491,0.0623,0.0327,0.0327,0.0326,0.0326,0,-0.0662,-0.0684,-0.068,-0.0695,-0.0729,-0.068,-0.0691,-0.0649,-0.0591,-0.0566,-0.0446,-0.0394,-0.0221,-0.0096,0.0049,0.0239,0.0204,0.0381,0.0416,0.044,0.0448,0.0628,0.0689,0.0329,0.0329,0.0328,0.0328,0,-0.0724,-0.0721,-0.0759,-0.0759,-0.0762,-0.0783,-0.0764,-0.0764,-0.0697,-0.0662,-0.0639,-0.0485,-0.0316,-0.0128,0.0072,0.0198,0.0469,0.0441,0.0467,0.0505,0.0756,0.0809,0.0982,0.1071,0.0576,0.0577,0.0579,0,-0.0756,-0.0784,-0.0818,-0.0847,-0.085,-0.0869,-0.0879,-0.0826,-0.0815,-0.0706,-0.0692,-0.0522,-0.0375,-0.0051,0.0197,0.0444,0.0567,0.062,0.0626,0.078,0.0864,0.09,0.0964,0.0686,0.0688,0.069,0.0692,0,-0.0815,-0.0827,-0.0859,-0.0928,-0.0957,-0.0983,-0.0987,-0.0996,-0.092,-0.086,-0.0743,-0.0616,-0.0285,0.0029,0.0361,0.0516,0.0738,0.0667,0.0818,0.0956,0.1013,0.1113,0.0635,0.0709,0.0707,0.0706,0.0705,0.0704,-0.0851,-0.0894,-0.0941,-0.1,-0.1041,-0.1077,-0.1088,-0.1063,-0.1027,-0.0903,-0.0784,-0.0538,-0.0102,0.0381,0.0558,0.0941,0.0899,0.1053,0.1101,0.1122,0.1222,0.0789,0.091,0.0909,0.0909,0.0908,0.0908,0,-0.089,-0.0938,-0.1007,-0.1073,-0.1126,-0.1126,-0.114,-0.1109,-0.1048,-0.0889,-0.0726,-0.0216,0.0224,0.063,0.1151,0.1362,0.1404,0.1467,0.1525,0.1568,0.1183,0.1202,0.1403,0.1403,0.1403,0.1403,0.1402,0.1402,-0.0911,-0.0984,-0.1023,-0.1122,-0.1166,-0.1196,-0.1194,-0.1116,-0.0989,-0.0682,-0.0377,-0.0124,0.0451,0.1238,0.1717,0.1765,0.194,0.1929,0.202,0.1754,0.1718,0.1685,0.172,0.2025,0.2026,0.2394,0.2398,0.2401]}],[{"header":{"parameterUnit":"m.s-1","parameterCategory":2,"la1":30.2991,"la2":30.254,"lo1":-89.0895,"lo2":-89.0444,"dy":0.0017,"dx":0.0017,"nx":28,"ny":28,"refTime":"2025-01-25T03:00:00:Z","depth":"2","parameterNumber":2,"parameterNumberName":"U-component_of_CURRENTS"},"data":[0,0,0,0,0,0,0,0,0,0,0,0,0,0,0,0,0,0,0,0,0,0,0,0,0,0,0,0,0,0,0,0,0,0,0,0,0,0,0,0,0,0,0,0,0,0,0,0,0,0,0,0,0,0,0,0,0,0,-0.2215,-0.2215,0,-0.2264,-0.2265,-0.2265,-0.2259,-0.2258,-0.2257,-0.2256,-0.2294,-0.2295,-0.2297,0,0,0,0,0,0,0,0,0,0,0,0,0,-0.2169,-0.2169,-0.2214,-0.2215,-0.2216,-0.2264,-0.2265,-0.2265,-0.2259,-0.2258,-0.2257,-0.2256,-0.2293,-0.2295,-0.2297,0,0,0,0,0,0,0,0,0,0,0,0,0,-0.2201,-0.217,-0.2214,-0.2218,-0.2219,-0.2264,-0.2265,-0.2266,-0.2259,-0.2258,-0.2257,-0.2256,-0.2292,-0.2295,-0.2298,-0.234,0,0,-0.2306,-0.2307,0,0,0,0,0,0,0,0,-0.2199,-0.2203,-0.2217,-0.2218,-0.2219,-0.2253,-0.2262,-0.229,-0.226,-0.2245,-0.2256,-0.2255,-0.228,-0.2283,-0.2297,-0.2342,-0.2344,-0.2306,-0.2308,-0.2309,-0.231,0,0,0,0,0,0,0,-0.2197,-0.2201,-0.2235,-0.2217,-0.2219,-0.2236,-0.2238,-0.2268,-0.2269,-0.2246,-0.2245,-0.225,-0.228,-0.2294,-0.2297,-0.2344,-0.2306,-0.2308,-0.231,-0.2311,-0.2456,-0.2458,0,0,0,0,0,0,-0.2188,-0.2199,-0.2233,-0.2236,-0.2205,-0.2237,-0.224,-0.2244,-0.2269,-0.2271,-0.2251,-0.225,-0.229,-0.2294,-0.2299,-0.2354,-0.2309,-0.2311,-0.2313,-0.2454,-0.2456,-0.2459,0,0,0,0,0,0,-0.2187,-0.2191,-0.2231,-0.2218,-0.2224,-0.2239,-0.2244,-0.2246,-0.2259,-0.2273,-0.2275,-0.2262,-0.2289,-0.2295,-0.2344,-0.2355,-0.2313,-0.2315,-0.2451,-0.2454,-0.2457,-0.2462,0,0,0,0,0,0,-0.2186,-0.219,-0.2196,-0.2217,-0.2225,-0.2269,-0.2245,-0.2248,-0.2264,-0.2262,-0.2284,-0.2285,-0.2289,-0.234,-0.2346,-0.2357,-0.2317,-0.2448,-0.2452,-0.2456,-0.2459,-0.2465,-0.247,0,0,0,0,0,-0.2184,-0.2204,-0.2196,-0.2201,-0.223,-0.2271,-0.2277,-0.2283,-0.2266,-0.2287,-0.2304,-0.2285,-0.237,-0.2344,-0.2351,-0.2363,-0.2446,-0.2451,-0.2456,-0.2456,-0.2463,-0.247,0,0,0,0,0,0,-0.2186,-0.2206,-0.2198,-0.2221,-0.2245,-0.2269,-0.2291,-0.2289,-0.2319,-0.2318,-0.2318,-0.2323,-0.2368,-0.238,-0.235,-0.2422,-0.2404,-0.241,-0.2402,-0.2409,-0.2414,-0.2385,-0.2319,0,0,0,0,0,-0.2188,-0.2205,-0.2227,-0.2243,-0.2259,-0.2273,-0.229,-0.2297,-0.2322,-0.2333,-0.2351,-0.2374,-0.2397,-0.2412,-0.2444,-0.2487,-0.2462,-0.2502,-0.2507,-0.2512,-0.2497,-0.2475,-0.2475,-0.2475,-0.2475,-0.2475,0,0,-0.2185,-0.2204,-0.2207,-0.2245,-0.2262,-0.2294,-0.2281,-0.2316,-0.2332,-0.2335,-0.2375,-0.2398,-0.2417,-0.2462,-0.2482,-0.2469,-0.2505,-0.2518,-0.2521,-0.2503,-0.248,-0.2479,-0.2479,-0.2478,-0.2478,-0.2477,0,0,-0.22,-0.2213,-0.2234,-0.2264,-0.2302,-0.2318,-0.2328,-0.2365,-0.2372,-0.2422,-0.2419,-0.2446,-0.2503,-0.2505,-0.2512,-0.2571,-0.2536,-0.2594,-0.2592,-0.2571,-0.2569,-0.2568,-0.2543,-0.2539,-0.2593,-0.2593,-0.2593,0,-0.2199,-0.222,-0.2249,-0.2287,-0.2303,-0.2327,-0.2352,-0.2376,-0.2424,-0.243,-0.2439,-0.2498,-0.2513,-0.253,-0.2552,-0.2576,-0.2562,-0.2556,-0.2572,-0.257,-0.2568,-0.2544,-0.2539,-0.2594,-0.2594,-0.2594,-0.2594,0,-0.2229,-0.225,-0.2272,-0.2315,-0.2347,-0.2377,-0.2411,-0.2444,-0.2457,-0.2472,-0.2506,-0.2534,-0.2555,-0.2574,-0.2579,-0.2581,-0.2576,-0.2578,-0.254,-0.2567,-0.2542,-0.2536,-0.2595,-0.2595,-0.2595,-0.2594,0,0,-0.2198,-0.2274,-0.2276,-0.2292,-0.2359,-0.2383,-0.2427,-0.2457,-0.2466,-0.2516,-0.2518,-0.2562,-0.2566,-0.2575,-0.2584,-0.2571,-0.2549,-0.2571,-0.257,-0.252,-0.2502,-0.2438,-0.2426,-0.2552,-0.2551,-0.255,-0.2491,0,-0.22,-0.2256,-0.2297,-0.2335,-0.2358,-0.2403,-0.2436,-0.2473,-0.25,-0.2523,-0.2533,-0.2553,-0.2567,-0.2575,-0.2566,-0.256,-0.2535,-0.2564,-0.2507,-0.2505,-0.2421,-0.2418,-0.224,-0.2167,-0.2485,-0.2484,-0.2484,0,-0.2195,-0.2234,-0.227,-0.2325,-0.2339,-0.2371,-0.241,-0.2446,-0.2488,-0.2509,-0.253,-0.2544,-0.2544,-0.2547,-0.2522,-0.2543,-0.2516,-0.2504,-0.2502,-0.243,-0.243,-0.2194,-0.2145,-0.2475,-0.2475,-0.2476,-0.2477,0,-0.2127,-0.2201,-0.2219,-0.2243,-0.2323,-0.234,-0.2378,-0.2432,-0.2455,-0.249,-0.2511,-0.2518,-0.252,-0.2498,-0.249,-0.2502,-0.245,-0.246,-0.237,-0.2366,-0.2194,-0.2176,-0.2411,-0.2411,-0.2411,-0.2411,-0.2411,0,-0.2093,-0.2105,-0.2189,-0.22,-0.2222,-0.2294,-0.2318,-0.2362,-0.2417,-0.2434,-0.2488,-0.2493,-0.2507,-0.2494,-0.2475,-0.2406,-0.2434,-0.2352,-0.2338,-0.2196,-0.2179,-0.2433,-0.2436,-0.2409,-0.2409,-0.241,-0.241,0,-0.2005,-0.2062,-0.2087,-0.2167,-0.2188,-0.2201,-0.2283,-0.23,-0.2372,-0.2393,-0.2402,-0.2464,-0.2442,-0.2445,-0.2406,-0.2374,-0.2323,-0.2286,-0.212,-0.2087,-0.2254,-0.2259,-0.2167,-0.2164,-0.2162,-0.2159,-0.2158,0,-0.1961,-0.1966,-0.2042,-0.2054,-0.2087,-0.2128,-0.2153,-0.225,-0.2275,-0.2363,-0.2357,-0.2374,-0.2347,-0.2289,-0.2226,-0.2153,-0.2239,-0.1961,-0.1942,-0.2228,-0.2225,-0.2234,-0.2242,-0.1722,-0.1716,-0.1712,-0.1709,0,-0.1871,-0.1899,-0.1924,-0.1954,-0.198,-0.2014,-0.2062,-0.2082,-0.2184,-0.2209,-0.2227,-0.2217,-0.2175,-0.2023,-0.1957,-0.1898,-0.1962,-0.1872,-0.2189,-0.1823,-0.1806,-0.1805,-0.1827,-0.1671,-0.1675,-0.1678,-0.168,-0.1681,-0.179,-0.1785,-0.1819,-0.1832,-0.1863,-0.1874,-0.1858,-0.1918,-0.1935,-0.1939,-0.2025,-0.195,-0.1938,-0.1732,-0.1644,-0.1577,-0.1713,-0.1638,-0.1651,-0.1669,-0.164,-0.1621,-0.1446,-0.1448,-0.145,-0.1452,-0.1453,0,-0.168,-0.1688,-0.1696,-0.1709,-0.1686,-0.1746,-0.1767,-0.1726,-0.1689,-0.1716,-0.1697,-0.1524,-0.1421,-0.1418,-0.125,-0.1223,-0.1214,-0.1176,-0.1163,-0.12,-0.1233,-0.1184,-0.0867,-0.0865,-0.0864,-0.0862,0,0,-0.1623,-0.1588,-0.1592,-0.1518,-0.1522,-0.1447,-0.1425,-0.1385,-0.137,-0.1292,-0.1247,-0.1339,-0.137,-0.1122,-0.1062,-0.0935,-0.1058,-0.0884,-0.1352,-0.1373,-0.1405,-0.1494,-0.1458,0,0,0,0,0]},{"header":{"parameterUnit":"m.s-1","parameterCategory":2,"la1":30.2991,"la2":30.254,"lo1":-89.0895,"lo2":-89.0444,"dy":0.0017,"dx":0.0017,"nx":28,"ny":28,"refTime":"2025-01-25T03:00:00:Z","depth":"2","parameterNumber":3,"parameterNumberName":"V-component_of_CURRENTS"},"data":[0,0,0,0,0,0,0,0,0,0,0,0,0,0,0,0,0,0,0,0,0,0,0,0,0,0,0,0,0,0,0,0,0,0,0,0,0,0,0,0,0,0,0,0,0,0,0,0,0,0,0,0,0,0,0,0,0,0,-0.0323,-0.0322,0,-0.0267,-0.0267,-0.0266,-0.0218,-0.0218,-0.0217,-0.0217,-0.0074,-0.007,-0.0067,0,0,0,0,0,0,0,0,0,0,0,0,0,-0.0351,-0.0351,-0.0323,-0.0322,-0.0322,-0.0268,-0.0267,-0.0266,-0.0218,-0.0218,-0.0217,-0.0217,-0.0075,-0.0071,-0.0067,0,0,0,0,0,0,0,0,0,0,0,0,0,-0.032,-0.0351,-0.0323,-0.0293,-0.029,-0.0268,-0.0267,-0.0265,-0.0218,-0.0218,-0.0217,-0.0216,-0.0076,-0.0071,-0.0066,-0.0045,0,0,-0.005,-0.0048,0,0,0,0,0,0,0,0,-0.0322,-0.0319,-0.0298,-0.0295,-0.0291,-0.0251,-0.0224,-0.0188,-0.0218,-0.0243,-0.0217,-0.0216,-0.0126,-0.0117,-0.0106,-0.0039,-0.0032,-0.005,-0.0046,-0.0044,-0.0043,0,0,0,0,0,0,0,-0.0324,-0.0321,-0.0299,-0.0297,-0.0293,-0.027,-0.0265,-0.0217,-0.0186,-0.0241,-0.0238,-0.0235,-0.0124,-0.0112,-0.0102,-0.003,-0.005,-0.0045,-0.0042,-0.004,0.0086,0.0087,0,0,0,0,0,0,-0.0337,-0.0323,-0.0301,-0.0298,-0.0308,-0.027,-0.0264,-0.0263,-0.0188,-0.0177,-0.0235,-0.0233,-0.0121,-0.0109,-0.0097,-0.0058,-0.0044,-0.0039,-0.0036,0.0086,0.0087,0.0087,0,0,0,0,0,0,-0.0338,-0.0336,-0.0303,-0.031,-0.0305,-0.0271,-0.0269,-0.0262,-0.0248,-0.0185,-0.0172,-0.0229,-0.012,-0.0104,-0.0056,-0.0053,-0.0037,-0.0032,0.0086,0.0086,0.0087,0.0014,0,0,0,0,0,0,-0.0339,-0.0337,-0.0339,-0.0311,-0.0305,-0.0296,-0.0269,-0.0261,-0.0248,-0.0244,-0.0175,-0.0161,-0.0118,-0.0064,-0.0051,-0.0045,-0.0028,0.0086,0.0086,0.0087,0.0016,0.0011,0.0008,0,0,0,0,0,-0.034,-0.035,-0.034,-0.0337,-0.031,-0.0297,-0.0292,-0.0264,-0.0249,-0.0248,-0.0199,-0.0163,-0.0052,-0.006,-0.0044,-0.0037,0.0085,0.0086,0.0087,0.0017,0.0012,0.0008,0,0,0,0,0,0,-0.0364,-0.0345,-0.0334,-0.0337,-0.0321,-0.029,-0.0287,-0.0268,-0.0231,-0.0222,-0.0161,-0.0144,-0.0103,-0.0058,-0.0069,0.0002,0.0024,0.0027,-0.0034,-0.0038,-0.0042,-0.0053,-0.0024,0,0,0,0,0,-0.0372,-0.0374,-0.0351,-0.0354,-0.0348,-0.0318,-0.0309,-0.0291,-0.0256,-0.0239,-0.0191,-0.0135,-0.0089,-0.0056,-0.0011,0.003,0.007,0.0047,0.0043,0.0039,0.0041,0.01,0.0101,0.0089,0.0089,0.0089,0,0,-0.0384,-0.0373,-0.0374,-0.0359,-0.0343,-0.0341,-0.031,-0.0301,-0.0293,-0.0228,-0.0197,-0.015,-0.0083,-0.0043,-0.0018,-0.0003,0.0061,0.004,0.0036,0.0041,0.0101,0.0102,0.0103,0.0089,0.0089,0.0089,0,0,-0.0412,-0.0397,-0.0409,-0.0398,-0.038,-0.036,-0.036,-0.0328,-0.0308,-0.0278,-0.0228,-0.0179,-0.011,-0.006,-0.0026,-0.0021,0.0032,-0.0006,-0.0026,0.0031,0.0032,0.0034,0.0071,0.0077,-0.0,-0.0001,-0.0001,0,-0.0426,-0.0435,-0.041,-0.0417,-0.0411,-0.0372,-0.0381,-0.0356,-0.0312,-0.029,-0.0276,-0.0171,-0.0118,-0.0058,-0.0058,-0.003,0.0004,-0.0017,0.0024,0.0027,0.003,0.0068,0.0075,-0.0004,-0.0004,-0.0003,-0.0003,0,-0.0462,-0.0466,-0.0472,-0.0465,-0.0455,-0.0457,-0.0422,-0.0402,-0.0372,-0.034,-0.0284,-0.0214,-0.0148,-0.0125,-0.0088,-0.0037,-0.0021,0.0003,0.003,0.0027,0.0067,0.0076,-0.0009,-0.0008,-0.0007,-0.0006,0,0,-0.0503,-0.0499,-0.0501,-0.0507,-0.0481,-0.0479,-0.046,-0.043,-0.0415,-0.0361,-0.0331,-0.0251,-0.0208,-0.0166,-0.011,-0.0057,-0.0012,-0.0022,-0.0017,0.0004,0.0099,0.0129,0.0142,0.0018,0.0019,0.002,0.0113,0,-0.0539,-0.0568,-0.0548,-0.0568,-0.058,-0.0535,-0.0522,-0.0485,-0.0442,-0.0401,-0.0319,-0.027,-0.0225,-0.0193,-0.0134,-0.0041,0.001,-0.004,0.011,0.0114,0.0133,0.0153,0.0127,0.0209,0.0122,0.0123,0.0124,0,-0.058,-0.0595,-0.0626,-0.0622,-0.0621,-0.0622,-0.0589,-0.0572,-0.0498,-0.0461,-0.0391,-0.0326,-0.0236,-0.0202,-0.005,-0.0086,-0.0,0.007,0.0075,0.0138,0.0161,0.0205,0.0229,0.014,0.0139,0.0137,0.0136,0,-0.0632,-0.0646,-0.0674,-0.0674,-0.0663,-0.0661,-0.0648,-0.0591,-0.0575,-0.0495,-0.0467,-0.0356,-0.0297,-0.0177,-0.003,-0.0038,0.0136,0.0145,0.0251,0.0253,0.028,0.0283,0.0254,0.0254,0.0254,0.0254,0.0253,0,-0.0679,-0.07,-0.0703,-0.0721,-0.075,-0.0716,-0.0722,-0.0688,-0.0633,-0.0611,-0.0503,-0.0452,-0.0287,-0.0165,-0.0039,0.0137,0.0134,0.0255,0.0288,0.0253,0.0252,0.0234,0.023,0.0257,0.0256,0.0256,0.0255,0,-0.0731,-0.0732,-0.0768,-0.0774,-0.0778,-0.0798,-0.0787,-0.0784,-0.0722,-0.0687,-0.0663,-0.052,-0.0357,-0.0186,0.0018,0.0126,0.0289,0.0352,0.0292,0.0316,0.0365,0.0356,0.0471,0.0473,0.0475,0.0476,0.0477,0,-0.076,-0.0785,-0.0821,-0.0849,-0.0855,-0.0875,-0.0886,-0.084,-0.0828,-0.0723,-0.0706,-0.0544,-0.0413,-0.0105,0.0112,0.034,0.0343,0.0446,0.0434,0.0371,0.0391,0.038,0.037,0.0433,0.0434,0.0434,0.0435,0,-0.0813,-0.0824,-0.0856,-0.0921,-0.0951,-0.0977,-0.0982,-0.0988,-0.092,-0.0861,-0.0748,-0.0632,-0.0335,-0.0078,0.0216,0.0347,0.0406,0.0466,0.0439,0.038,0.0343,0.036,0.035,0.044,0.044,0.0439,0.0439,0.0439,-0.0845,-0.0885,-0.093,-0.0987,-0.1026,-0.1061,-0.1073,-0.1048,-0.1014,-0.0898,-0.0789,-0.0575,-0.0339,0.0091,0.0296,0.0488,0.0479,0.053,0.0525,0.052,0.0497,0.0466,0.058,0.058,0.0581,0.0581,0.0581,0,-0.0883,-0.0927,-0.0991,-0.1055,-0.1106,-0.1107,-0.112,-0.1093,-0.1036,-0.0894,-0.0747,-0.046,-0.0165,0.0087,0.0392,0.0567,0.0548,0.0595,0.0532,0.0526,0.052,0.0495,0.0579,0.0579,0.058,0.058,0,0,-0.0903,-0.0971,-0.1007,-0.11,-0.1144,-0.1177,-0.1177,-0.1106,-0.0994,-0.0835,-0.0662,-0.0443,-0.0144,0.0071,0.0285,0.0444,0.0441,0.0461,0.0444,0.0337,0.033,0.0465,0.0417,0,0,0,0,0]}],[{"header":{"parameterUnit":"m.s-1","parameterCategory":2,"la1":30.2991,"la2":30.254,"lo1":-89.0895,"lo2":-89.0444,"dy":0.0017,"dx":0.0017,"nx":28,"ny":28,"refTime":"2025-01-25T03:00:00:Z","depth":"4","parameterNumber":2,"parameterNumberName":"U-component_of_CURRENTS"},"data":[0,0,0,0,0,0,0,0,0,0,0,0,0,0,0,0,0,0,0,0,0,0,0,0,0,0,0,0,0,0,0,0,0,0,0,0,0,0,0,0,0,0,0,0,0,0,0,0,0,0,0,0,0,0,0,0,0,0,-0.1433,-0.1434,0,-0.1499,-0.15,-0.15,-0.1522,-0.1521,-0.1521,-0.1521,-0.1587,-0.1589,-0.1591,0,0,0,0,0,0,0,0,0,0,0,0,0,-0.1391,-0.1392,-0.1433,-0.1434,-0.1435,-0.1499,-0.15,-0.1501,-0.1522,-0.1521,-0.1521,-0.1521,-0.1586,-0.1589,-0.1591,0,0,0,0,0,0,0,0,0,0,0,0,0,-0.1429,-0.1392,-0.1433,-0.1453,-0.1455,-0.1499,-0.15,-0.1501,-0.1522,-0.1521,-0.1521,-0.152,-0.1586,-0.1589,-0.1592,-0.1621,0,0,-0.1601,-0.1603,0,0,0,0,0,0,0,0,-0.1426,-0.143,-0.1449,-0.1452,-0.1454,-0.1501,-0.1509,-0.1541,-0.1522,-0.1497,-0.1521,-0.152,-0.1559,-0.1564,-0.1578,-0.1624,-0.1627,-0.1602,-0.1603,-0.1605,-0.1606,0,0,0,0,0,0,0,-0.1424,-0.1428,-0.146,-0.145,-0.1453,-0.1481,-0.1485,-0.1516,-0.153,-0.1499,-0.1501,-0.1508,-0.156,-0.1575,-0.158,-0.1628,-0.1601,-0.1604,-0.1606,-0.1607,-0.175,-0.1752,0,0,0,0,0,0,-0.1412,-0.1425,-0.1458,-0.1462,-0.1438,-0.1481,-0.1486,-0.1487,-0.153,-0.1536,-0.1508,-0.1508,-0.157,-0.1576,-0.1582,-0.1659,-0.1605,-0.1608,-0.1609,-0.1748,-0.175,-0.1752,0,0,0,0,0,0,-0.1411,-0.1414,-0.1455,-0.1445,-0.1452,-0.1482,-0.1483,-0.1489,-0.1523,-0.1536,-0.1542,-0.1538,-0.157,-0.1578,-0.1632,-0.166,-0.1609,-0.1612,-0.1746,-0.1749,-0.1751,-0.1788,0,0,0,0,0,0,-0.1409,-0.1413,-0.1425,-0.1444,-0.1452,-0.1494,-0.1484,-0.149,-0.1526,-0.1528,-0.1564,-0.1569,-0.157,-0.1627,-0.1635,-0.1664,-0.1614,-0.1743,-0.1747,-0.175,-0.1784,-0.1792,-0.1798,0,0,0,0,0,-0.1407,-0.1423,-0.1425,-0.143,-0.1462,-0.1496,-0.1503,-0.1523,-0.1528,-0.1551,-0.1578,-0.1569,-0.1655,-0.1632,-0.164,-0.167,-0.1742,-0.1746,-0.175,-0.1781,-0.179,-0.1798,0,0,0,0,0,0,-0.1413,-0.1427,-0.143,-0.145,-0.1477,-0.1499,-0.1529,-0.154,-0.158,-0.159,-0.1597,-0.1605,-0.1659,-0.1668,-0.1641,-0.1724,-0.1696,-0.1702,-0.1717,-0.1725,-0.1732,-0.1728,-0.1617,0,0,0,0,0,-0.1418,-0.1434,-0.1452,-0.1472,-0.1488,-0.1514,-0.1536,-0.155,-0.158,-0.1598,-0.1623,-0.1654,-0.1683,-0.1706,-0.1732,-0.1784,-0.1774,-0.181,-0.1817,-0.1822,-0.1827,-0.1842,-0.185,-0.1767,-0.1767,-0.1766,0,0,-0.1427,-0.1437,-0.1448,-0.1475,-0.15,-0.1534,-0.1527,-0.157,-0.1602,-0.16,-0.1665,-0.1682,-0.1702,-0.1753,-0.1779,-0.1766,-0.184,-0.1828,-0.1832,-0.1834,-0.1847,-0.1855,-0.1862,-0.1769,-0.1769,-0.1768,0,0,-0.1454,-0.1463,-0.1489,-0.1513,-0.1553,-0.1569,-0.1585,-0.1624,-0.1649,-0.1708,-0.171,-0.1746,-0.1803,-0.1816,-0.1829,-0.1895,-0.1873,-0.1909,-0.1944,-0.1959,-0.1965,-0.1971,-0.1955,-0.1959,-0.1914,-0.1915,-0.1915,0,-0.1469,-0.1492,-0.1506,-0.1539,-0.1564,-0.1586,-0.1625,-0.1656,-0.171,-0.1735,-0.1736,-0.1816,-0.1829,-0.1879,-0.1898,-0.1909,-0.1905,-0.1906,-0.1965,-0.1971,-0.1976,-0.1958,-0.1962,-0.1917,-0.1917,-0.1916,-0.1916,0,-0.1508,-0.1537,-0.1559,-0.1601,-0.1634,-0.1672,-0.1707,-0.1751,-0.1782,-0.1805,-0.187,-0.1892,-0.1933,-0.1945,-0.1942,-0.199,-0.1971,-0.1967,-0.1937,-0.1986,-0.1965,-0.1968,-0.192,-0.1919,-0.1919,-0.1918,0,0,-0.1508,-0.1574,-0.1583,-0.1607,-0.1668,-0.1692,-0.1759,-0.1813,-0.185,-0.1904,-0.1949,-0.1999,-0.2005,-0.2021,-0.2024,-0.2039,-0.206,-0.2023,-0.2022,-0.1994,-0.2076,-0.1931,-0.192,-0.2069,-0.207,-0.2071,-0.2042,0,-0.1536,-0.1596,-0.163,-0.1692,-0.1719,-0.1766,-0.1819,-0.1872,-0.1915,-0.1964,-0.1994,-0.2037,-0.2036,-0.2053,-0.2073,-0.2065,-0.2073,-0.2067,-0.2046,-0.2044,-0.1898,-0.1921,-0.2075,-0.2044,-0.2045,-0.2045,-0.2046,0,-0.1547,-0.1587,-0.165,-0.1717,-0.1738,-0.1786,-0.186,-0.1911,-0.1982,-0.2018,-0.207,-0.2086,-0.2125,-0.2109,-0.2131,-0.2129,-0.211,-0.2097,-0.2096,-0.1949,-0.1905,-0.1991,-0.2051,-0.205,-0.205,-0.205,-0.2049,0,-0.15,-0.1591,-0.1638,-0.1663,-0.1751,-0.1799,-0.1851,-0.1929,-0.197,-0.2048,-0.2078,-0.2131,-0.215,-0.2157,-0.2138,-0.214,-0.2137,-0.2133,-0.1984,-0.1973,-0.2095,-0.209,-0.2143,-0.2143,-0.2143,-0.2143,-0.2143,0,-0.1478,-0.1517,-0.1624,-0.1643,-0.1704,-0.1778,-0.1846,-0.1906,-0.1988,-0.202,-0.2097,-0.2115,-0.2165,-0.2167,-0.2149,-0.2064,-0.2148,-0.1984,-0.1958,-0.211,-0.2107,-0.2096,-0.2091,-0.2142,-0.2142,-0.2142,-0.2142,0,-0.1398,-0.1473,-0.1527,-0.1639,-0.1677,-0.1716,-0.183,-0.1867,-0.1964,-0.2007,-0.2032,-0.2109,-0.21,-0.212,-0.2113,-0.2051,-0.2,-0.195,-0.2095,-0.2079,-0.1823,-0.1821,-0.1775,-0.177,-0.1766,-0.1762,-0.1759,0,-0.1355,-0.1378,-0.1501,-0.1534,-0.1589,-0.1668,-0.1713,-0.1833,-0.1865,-0.1977,-0.1973,-0.2014,-0.2041,-0.1912,-0.1956,-0.1899,-0.1879,-0.1844,-0.1847,-0.1807,-0.1787,-0.1792,-0.1795,-0.1752,-0.175,-0.1749,-0.1748,0,-0.1269,-0.1328,-0.1375,-0.1444,-0.1504,-0.1561,-0.1637,-0.165,-0.1767,-0.1875,-0.1853,-0.184,-0.1822,-0.1804,-0.1768,-0.1735,-0.1864,-0.1796,-0.1806,-0.1809,-0.1778,-0.1763,-0.1772,-0.1732,-0.1735,-0.1736,-0.1737,0,-0.1205,-0.1216,-0.1287,-0.133,-0.1401,-0.1423,-0.1487,-0.1519,-0.1567,-0.1692,-0.1675,-0.1724,-0.1794,-0.1717,-0.1689,-0.1637,-0.1614,-0.1567,-0.1588,-0.1606,-0.1563,-0.1499,-0.1339,0,0,0,0,0,-0.1132,-0.1132,-0.1166,-0.1211,-0.1276,-0.1314,-0.1415,-0.1483,-0.1597,-0.1531,-0.1599,-0.1571,-0.1529,-0.1562,-0.1469,-0.161,-0.1622,-0.1497,-0.1581,-0.1646,-0.1664,-0.1629,0,0,0,0,0,0,-0.1084,-0.1113,-0.1121,-0.1094,-0.11,-0.1157,-0.1214,-0.1301,-0.1276,-0.1395,-0.1375,-0.1465,-0.1443,-0.1541,-0.1429,-0.1437,-0.1455,-0.1535,-0.153,-0.1635,-0.1652,-0.1666,-0.1637,0,0,0,0,0]},{"header":{"parameterUnit":"m.s-1","parameterCategory":2,"la1":30.2991,"la2":30.254,"lo1":-89.0895,"lo2":-89.0444,"dy":0.0017,"dx":0.0017,"nx":28,"ny":28,"refTime":"2025-01-25T03:00:00:Z","depth":"4","parameterNumber":3,"parameterNumberName":"V-component_of_CURRENTS"},"data":[0,0,0,0,0,0,0,0,0,0,0,0,0,0,0,0,0,0,0,0,0,0,0,0,0,0,0,0,0,0,0,0,0,0,0,0,0,0,0,0,0,0,0,0,0,0,0,0,0,0,0,0,0,0,0,0,0,0,-0.0307,-0.0307,0,-0.0289,-0.0289,-0.0288,-0.0277,-0.0277,-0.0278,-0.0278,-0.0208,-0.0206,-0.0204,0,0,0,0,0,0,0,0,0,0,0,0,0,-0.0304,-0.0304,-0.0307,-0.0307,-0.0307,-0.0289,-0.0289,-0.0288,-0.0277,-0.0277,-0.0278,-0.0278,-0.0209,-0.0206,-0.0204,0,0,0,0,0,0,0,0,0,0,0,0,0,-0.0296,-0.0304,-0.0307,-0.03,-0.0299,-0.0289,-0.0289,-0.0288,-0.0277,-0.0277,-0.0278,-0.0278,-0.0209,-0.0207,-0.0204,-0.0184,0,0,-0.0195,-0.0194,0,0,0,0,0,0,0,0,-0.0297,-0.0296,-0.0301,-0.03,-0.03,-0.0287,-0.0262,-0.0251,-0.0277,-0.0284,-0.0278,-0.0278,-0.023,-0.0226,-0.0221,-0.0181,-0.0178,-0.0195,-0.0193,-0.0192,-0.0191,0,0,0,0,0,0,0,-0.0297,-0.0297,-0.0298,-0.0301,-0.03,-0.0288,-0.0288,-0.026,-0.0255,-0.0284,-0.0283,-0.0283,-0.0229,-0.0224,-0.0219,-0.0177,-0.0195,-0.0192,-0.0191,-0.019,-0.0126,-0.0126,0,0,0,0,0,0,-0.0303,-0.0297,-0.0299,-0.0298,-0.03,-0.0289,-0.0288,-0.029,-0.0257,-0.0252,-0.0283,-0.0283,-0.0229,-0.0223,-0.0217,-0.0205,-0.0192,-0.0189,-0.0188,-0.0126,-0.0126,-0.0126,0,0,0,0,0,0,-0.0303,-0.0304,-0.03,-0.0298,-0.0297,-0.0289,-0.0291,-0.0289,-0.0288,-0.0257,-0.0251,-0.0285,-0.0229,-0.0221,-0.0202,-0.0201,-0.0188,-0.0185,-0.0126,-0.0126,-0.0126,-0.0172,0,0,0,0,0,0,-0.0303,-0.0304,-0.031,-0.0299,-0.0297,-0.0303,-0.0291,-0.0289,-0.0289,-0.0288,-0.0256,-0.025,-0.0228,-0.0207,-0.0199,-0.0197,-0.0183,-0.0126,-0.0126,-0.0126,-0.0171,-0.0174,-0.0177,0,0,0,0,0,-0.0303,-0.0313,-0.031,-0.031,-0.0305,-0.0304,-0.0302,-0.0295,-0.0289,-0.0293,-0.0272,-0.0251,-0.0202,-0.0205,-0.0196,-0.0193,-0.0126,-0.0126,-0.0126,-0.0169,-0.0173,-0.0176,0,0,0,0,0,0,-0.0316,-0.0313,-0.0309,-0.0318,-0.0315,-0.0303,-0.0306,-0.0299,-0.0286,-0.0284,-0.0253,-0.0245,-0.023,-0.0204,-0.0208,-0.0175,-0.0159,-0.0158,-0.0195,-0.0198,-0.0201,-0.02,-0.0181,0,0,0,0,0,-0.0322,-0.0328,-0.0321,-0.0329,-0.0328,-0.0317,-0.0316,-0.0311,-0.0298,-0.0293,-0.0271,-0.0244,-0.0222,-0.0206,-0.0185,-0.0163,-0.0122,-0.0155,-0.0158,-0.0161,-0.0154,-0.0086,-0.0081,-0.0126,-0.0126,-0.0126,0,0,-0.0329,-0.0328,-0.0332,-0.0332,-0.0328,-0.0333,-0.0317,-0.0319,-0.032,-0.0286,-0.0279,-0.0257,-0.0221,-0.0204,-0.0194,-0.0182,-0.013,-0.0161,-0.0163,-0.0154,-0.0085,-0.0081,-0.0076,-0.0126,-0.0126,-0.0126,0,0,-0.0348,-0.0346,-0.0358,-0.0357,-0.0355,-0.0348,-0.0351,-0.0341,-0.0334,-0.0326,-0.0301,-0.0276,-0.0247,-0.0217,-0.0198,-0.02,-0.0153,-0.0197,-0.0203,-0.0138,-0.0133,-0.0129,-0.0088,-0.0079,-0.0192,-0.0192,-0.0192,0,-0.0358,-0.0372,-0.0361,-0.0371,-0.0373,-0.0358,-0.0369,-0.0359,-0.0345,-0.0333,-0.0332,-0.0275,-0.025,-0.0211,-0.0218,-0.0205,-0.0169,-0.0196,-0.0141,-0.0135,-0.013,-0.0088,-0.0078,-0.0194,-0.0194,-0.0194,-0.0193,0,-0.0384,-0.0395,-0.0402,-0.0408,-0.0408,-0.0417,-0.0403,-0.0398,-0.0387,-0.037,-0.0338,-0.0301,-0.0263,-0.0253,-0.0239,-0.0189,-0.0177,-0.0159,-0.0133,-0.0128,-0.0085,-0.0074,-0.0197,-0.0197,-0.0196,-0.0195,0,0,-0.0407,-0.0419,-0.0423,-0.0434,-0.043,-0.0436,-0.043,-0.0418,-0.041,-0.0384,-0.0361,-0.0321,-0.0293,-0.0269,-0.0237,-0.0182,-0.0124,-0.0159,-0.0154,-0.012,0.0007,-0.0013,-0.0002,-0.0094,-0.0092,-0.009,0.0015,0,-0.0432,-0.0463,-0.0456,-0.0483,-0.0498,-0.0478,-0.0476,-0.0458,-0.0435,-0.0408,-0.035,-0.0322,-0.03,-0.0282,-0.0223,-0.0152,-0.0093,-0.0155,-0.0,0.0004,-0.0015,0.0011,-0.0083,0.0024,0.0027,0.0029,0.003,0,-0.046,-0.0479,-0.0512,-0.0524,-0.0527,-0.0538,-0.0526,-0.0521,-0.047,-0.0447,-0.0393,-0.0349,-0.0274,-0.0255,-0.0111,-0.0153,-0.0076,-0.0015,-0.0009,0.0,0.0006,0.0025,0.0052,0.005,0.0048,0.0047,0.0046,0,-0.049,-0.0516,-0.0546,-0.0552,-0.0562,-0.0568,-0.0569,-0.0535,-0.0528,-0.0466,-0.0446,-0.035,-0.0304,-0.0188,-0.0075,-0.0085,0.0086,0.0092,0.0151,0.0149,0.0156,0.015,0.0211,0.0211,0.021,0.021,0.021,0,-0.0518,-0.0543,-0.0568,-0.0587,-0.0622,-0.0608,-0.0624,-0.0605,-0.0568,-0.0553,-0.047,-0.0426,-0.0283,-0.0174,-0.0067,0.0072,0.01,0.0159,0.0184,0.013,0.012,0.0163,0.0156,0.0214,0.0213,0.0212,0.0212,0,-0.0543,-0.0559,-0.0601,-0.0627,-0.0641,-0.0666,-0.0679,-0.0681,-0.0638,-0.0611,-0.0592,-0.0474,-0.0334,-0.0189,-0.0,0.0073,0.0214,0.026,0.018,0.0197,0.0229,0.0218,0.0336,0.0336,0.0336,0.0336,0.0337,0,-0.0557,-0.0583,-0.0642,-0.0676,-0.0694,-0.0727,-0.0747,-0.0724,-0.0716,-0.0637,-0.0618,-0.0485,-0.0394,-0.0136,0.0007,0.0217,0.0243,0.0307,0.028,0.0233,0.0246,0.0235,0.0224,0.0337,0.0337,0.0337,0.0337,0,-0.0583,-0.0609,-0.0645,-0.0721,-0.0762,-0.0798,-0.0817,-0.0816,-0.0772,-0.0738,-0.0619,-0.0481,-0.0324,-0.0136,0.0025,0.0174,0.0259,0.0311,0.0311,0.0286,0.0237,0.0247,0.0236,0.0338,0.0338,0.0338,0.0338,0,-0.06,-0.0637,-0.0692,-0.0751,-0.0811,-0.0844,-0.0852,-0.082,-0.08,-0.0702,-0.0663,-0.0481,-0.0373,-0.0157,-0.0006,0.0134,0.0163,0.0199,0.0206,0.0206,0.013,0.0046,0.0122,0,0,0,0,0,-0.0611,-0.0653,-0.0718,-0.0781,-0.0841,-0.0869,-0.0885,-0.0875,-0.0834,-0.0754,-0.0703,-0.0547,-0.0308,-0.0198,-0.006,-0.0022,0.0167,0.0141,0.0206,0.0344,0.0343,0.0272,0,0,0,0,0,0,-0.062,-0.0682,-0.0716,-0.079,-0.0836,-0.089,-0.09,-0.0873,-0.0811,-0.075,-0.0616,-0.053,-0.0295,-0.0388,-0.0062,-0.002,0.0036,0.0259,0.0262,0.0345,0.0344,0.0343,0.027,0,0,0,0,0]}]]